Location: Julian California
(33.0790°N, 116.6010°W)
Time: 21:20:27
(UTC-07:00)

IGS 5A - Pass Details

Date: 14 June 2018
Orbit: 584 x 589 km, 97.7° (Epoch: 13 June)

Event Time Altitude Azimuth Distance (km) Brightness Sun altitude
Exits shadow 22:42:36 53° 6° (N) 721 4.0 -26.3°
Drops below altitude 10° 22:45:50 10° 352° (N) 1,906 6.9 -26.7°
Sets 22:48:00 0° 351° (N) 2,811 8.0 -26.9°
